When you browse on this site, cookies collect data to enhance your experience and personalize the content and advertising you see.
Visit our Privacy Policy to learn more. By continuing to use the site, you agree to this use of cookies and data.
  • în România
  • Lista ţărilor
  • Pe 7 zile
  • Temperatura apei
  • Hartă satelitară
  • Meteo pe hartă
  • Widget-uri
  • user-avatar
    Intrare

    Meteo pe oră la Achisu

    Astăzi, 19 Iulie, Vineri

    Timp Temperatura Precipitaţii Vânt Presiune Umiditate
    00:00 +25°C° 0 mm 2 m/s 738 mmHg 65%
    01:00 +25°C° 0 mm 2 m/s 738 mmHg 66%
    02:00 +25°C° 0 mm 2 m/s 738 mmHg 66%
    03:00 +25°C° 0 mm 2 m/s 738 mmHg 67%
    04:00 +25°C° 0 mm 2 m/s 738 mmHg 64%
    05:00 +26°C° 0 mm 2 m/s 738 mmHg 62%
    06:00 +27°C° 0 mm 2 m/s 739 mmHg 60%
    07:00 +29°C° 0 mm 3 m/s 739 mmHg 53%
    08:00 +30°C° 0 mm 4 m/s 739 mmHg 46%
    09:00 +33°C° 0 mm 5 m/s 740 mmHg 39%
    10:00 +33°C° 0 mm 5 m/s 740 mmHg 38%
    11:00 +34°C° 0 mm 6 m/s 740 mmHg 37%
    12:00 +35°C° 0 mm 7 m/s 740 mmHg 36%
    13:00 +34°C° 0 mm 6 m/s 740 mmHg 39%
    14:00 +34°C° 0 mm 6 m/s 740 mmHg 42%
    15:00 +33°C° 0 mm 5 m/s 740 mmHg 44%
    16:00 +32°C° 0 mm 4 m/s 740 mmHg 46%
    17:00 +32°C° 0 mm 4 m/s 740 mmHg 47%
    18:00 +30°C° 0 mm 3 m/s 740 mmHg 49%
    19:00 +29°C° 0 mm 2 m/s 741 mmHg 50%
    20:00 +28°C° 0 mm 2 m/s 741 mmHg 51%
    21:00 +27°C° 0 mm 2 m/s 741 mmHg 53%
    22:00 +27°C° 0 mm 2 m/s 742 mmHg 52%
    23:00 +27°C° 0 mm 2 m/s 742 mmHg 51%

    Mâine, 20 Iulie, Sâmbătă

    Timp Temperatura Precipitaţii Vânt Presiune Umiditate
    00:00 +27°C° 0 mm 2 m/s 742 mmHg 51%
    01:00 +27°C° 0 mm 2 m/s 742 mmHg 51%
    02:00 +26°C° 0 mm 3 m/s 742 mmHg 51%
    03:00 +26°C° 0 mm 3 m/s 742 mmHg 51%
    04:00 +27°C° 0 mm 3 m/s 743 mmHg 52%
    05:00 +27°C° 0 mm 3 m/s 743 mmHg 52%
    06:00 +28°C° 0 mm 3 m/s 743 mmHg 52%
    07:00 +29°C° 0 mm 4 m/s 743 mmHg 50%
    08:00 +30°C° 0 mm 4 m/s 744 mmHg 48%
    09:00 +33°C° 0 mm 5 m/s 744 mmHg 45%
    10:00 +33°C° 0 mm 5 m/s 744 mmHg 45%
    11:00 +33°C° 0 mm 5 m/s 745 mmHg 45%
    12:00 +34°C° 0 mm 5 m/s 745 mmHg 45%
    13:00 +33°C° 0 mm 5 m/s 745 mmHg 46%
    14:00 +33°C° 0 mm 4 m/s 744 mmHg 47%
    15:00 +32°C° 0 mm 4 m/s 744 mmHg 49%
    16:00 +31°C° 0 mm 3 m/s 744 mmHg 50%
    17:00 +30°C° 0 mm 3 m/s 745 mmHg 52%
    18:00 +30°C° 0 mm 2 m/s 745 mmHg 53%
    19:00 +29°C° 0 mm 2 m/s 745 mmHg 56%
    20:00 +28°C° 0 mm 2 m/s 745 mmHg 60%
    21:00 +27°C° 0 mm 2 m/s 745 mmHg 63%
    22:00 +26°C° 0 mm 2 m/s 745 mmHg 65%
    23:00 +26°C° 0 mm 2 m/s 745 mmHg 67%

    Poimâine, 21 Iulie, Duminică

    Timp Temperatura Precipitaţii Vânt Presiune Umiditate
    00:00 +25°C° 0 mm 1 m/s 745 mmHg 68%
    01:00 +25°C° 0 mm 2 m/s 745 mmHg 69%
    02:00 +25°C° 0 mm 2 m/s 745 mmHg 69%
    03:00 +25°C° 0 mm 2 m/s 745 mmHg 69%
    04:00 +26°C° 0 mm 2 m/s 745 mmHg 66%
    05:00 +26°C° 0 mm 2 m/s 745 mmHg 64%
    06:00 +27°C° 0 mm 2 m/s 745 mmHg 61%
    07:00 +28°C° 0 mm 3 m/s 745 mmHg 57%
    08:00 +29°C° 0 mm 4 m/s 745 mmHg 53%
    09:00 +30°C° 0 mm 6 m/s 745 mmHg 48%
    10:00 +32°C° 0 mm 6 m/s 745 mmHg 48%
    11:00 +32°C° 0 mm 7 m/s 744 mmHg 48%
    12:00 +32°C° 0 mm 7 m/s 744 mmHg 47%
    13:00 +32°C° 0 mm 7 m/s 744 mmHg 48%
    14:00 +32°C° 0 mm 6 m/s 743 mmHg 49%
    15:00 +32°C° 0 mm 6 m/s 743 mmHg 50%
    16:00 +30°C° 0 mm 5 m/s 743 mmHg 52%
    17:00 +29°C° 0 mm 4 m/s 743 mmHg 53%
    18:00 +29°C° 0 mm 3 m/s 743 mmHg 55%
    19:00 +28°C° 0 mm 2 m/s 743 mmHg 60%
    20:00 +26°C° 0 mm 2 m/s 743 mmHg 65%
    21:00 +25°C° 0 mm 1 m/s 743 mmHg 70%
    22:00 +25°C° 0 mm 1 m/s 743 mmHg 70%
    23:00 +25°C° 0 mm 1 m/s 743 mmHg 71%

    22 Iulie, Luni

    Timp Temperatura Precipitaţii Vânt Presiune Umiditate
    00:00 +22°C° 0 mm 0 m/s 743 mmHg 72%
    01:00 +22°C° 0 mm 0 m/s 743 mmHg 72%
    02:00 +24°C° 0 mm 1 m/s 742 mmHg 72%
    03:00 +24°C° 0 mm 1 m/s 742 mmHg 73%
    04:00 +25°C° 0 mm 1 m/s 742 mmHg 68%
    05:00 +26°C° 0 mm 1 m/s 742 mmHg 64%
    06:00 +27°C° 0 mm 1 m/s 742 mmHg 59%
    07:00 +28°C° 0 mm 2 m/s 742 mmHg 55%
    08:00 +29°C° 0 mm 3 m/s 742 mmHg 51%
    09:00 +31°C° 0 mm 3 m/s 742 mmHg 46%
    10:00 +31°C° 0 mm 3 m/s 742 mmHg 46%
    11:00 +31°C° 0 mm 3 m/s 741 mmHg 45%
    12:00 +33°C° 0 mm 3 m/s 741 mmHg 45%
    13:00 +33°C° 0 mm 3 m/s 741 mmHg 45%
    14:00 +33°C° 0 mm 3 m/s 740 mmHg 46%
    15:00 +33°C° 0 mm 3 m/s 740 mmHg 46%
    16:00 +31°C° 0 mm 3 m/s 740 mmHg 48%
    17:00 +30°C° 0 mm 2 m/s 740 mmHg 50%
    18:00 +29°C° 0 mm 2 m/s 740 mmHg 52%
    19:00 +28°C° 0 mm 2 m/s 740 mmHg 56%
    20:00 +27°C° 0 mm 2 m/s 740 mmHg 61%
    21:00 +25°C° 0 mm 2 m/s 741 mmHg 65%
    22:00 +26°C° 0 mm 3 m/s 741 mmHg 64%
    23:00 +26°C° 0 mm 3 m/s 740 mmHg 63%

    23 Iulie, Marţi

    Timp Temperatura Precipitaţii Vânt Presiune Umiditate
    00:00 +26°C° 0 mm 4 m/s 740 mmHg 62%
    01:00 +26°C° 0 mm 4 m/s 740 mmHg 61%
    02:00 +26°C° 0 mm 4 m/s 740 mmHg 60%
    03:00 +26°C° 0 mm 4 m/s 740 mmHg 60%
    04:00 +26°C° 0 mm 4 m/s 740 mmHg 58%
    05:00 +26°C° 0 mm 3 m/s 740 mmHg 56%
    06:00 +27°C° 0 mm 3 m/s 740 mmHg 54%
    07:00 +28°C° 0 mm 3 m/s 740 mmHg 52%
    08:00 +28°C° 0 mm 4 m/s 740 mmHg 50%
    09:00 +29°C° 0 mm 4 m/s 740 mmHg 48%
    10:00 +29°C° 0 mm 5 m/s 739 mmHg 48%
    11:00 +30°C° 0 mm 5 m/s 739 mmHg 47%
    12:00 +30°C° 0 mm 5 m/s 739 mmHg 47%
    13:00 +30°C° 0 mm 5 m/s 739 mmHg 47%
    14:00 +30°C° 0 mm 5 m/s 739 mmHg 47%
    15:00 +30°C° 0 mm 5 m/s 738 mmHg 47%
    16:00 +30°C° 0 mm 4 m/s 738 mmHg 48%
    17:00 +29°C° 0 mm 4 m/s 738 mmHg 49%
    18:00 +29°C° 0 mm 3 m/s 738 mmHg 51%
    19:00 +27°C° 0 mm 3 m/s 739 mmHg 55%
    20:00 +26°C° 0 mm 2 m/s 739 mmHg 59%
    21:00 +25°C° 0 mm 2 m/s 739 mmHg 64%
    22:00 +25°C° 0 mm 2 m/s 739 mmHg 64%
    23:00 +25°C° 0 mm 2 m/s 739 mmHg 64%

    24 Iulie, Miercuri

    Timp Temperatura Precipitaţii Vânt Presiune Umiditate
    00:00 +24°C° 0 mm 3 m/s 739 mmHg 64%
    01:00 +24°C° 0 mm 3 m/s 738 mmHg 62%
    02:00 +25°C° 0 mm 3 m/s 738 mmHg 61%
    03:00 +25°C° 0 mm 3 m/s 738 mmHg 60%
    04:00 +25°C° 0.1 mm 3 m/s 738 mmHg 60%
    05:00 +26°C° 0.1 mm 3 m/s 738 mmHg 59%
    06:00 +26°C° 0.1 mm 3 m/s 738 mmHg 59%
    07:00 +27°C° 0 mm 3 m/s 738 mmHg 55%
    08:00 +29°C° 0 mm 4 m/s 738 mmHg 51%
    09:00 +30°C° 0 mm 4 m/s 738 mmHg 47%
    10:00 +30°C° 0 mm 5 m/s 738 mmHg 46%
    11:00 +32°C° 0 mm 5 m/s 738 mmHg 45%
    12:00 +33°C° 0 mm 5 m/s 737 mmHg 43%
    13:00 +33°C° 0 mm 5 m/s 737 mmHg 43%
    14:00 +33°C° 0 mm 5 m/s 737 mmHg 43%
    15:00 +33°C° 0 mm 4 m/s 737 mmHg 43%
    16:00 +32°C° 0 mm 4 m/s 737 mmHg 45%
    17:00 +30°C° 0 mm 4 m/s 736 mmHg 47%
    18:00 +30°C° 0 mm 4 m/s 736 mmHg 49%
    19:00 +29°C° 0 mm 4 m/s 737 mmHg 52%
    20:00 +27°C° 0 mm 4 m/s 737 mmHg 55%
    21:00 +26°C° 0 mm 4 m/s 737 mmHg 58%
    22:00 +26°C° 0 mm 4 m/s 737 mmHg 58%
    23:00 +26°C° 0 mm 4 m/s 737 mmHg 58%
    Arată mai mult